Tracking 18624 objects as of 27-April-2017
HD Live streaming from Space Station
objects crossing your sky now

USA 158

Track USA 158 now!
USA 158 is classified as:


NORAD ID: 26770
Int'l Code: 2001-020A
Perigee: 36,140.2 km
Apogee: 36,259.0 km
Inclination: 6.2 °
Period: 1,456.9 minutes
Semi major axis: 42570 km
RCS: Unknown
Launch date: May 18, 2001
Source: United States (US)
Launch site: AIR FORCE EASTERN TEST RANGE (AFETR)

Advanced technology demonstration satellite with laser communications experiment and operational UHF communications mission.
Your satellite tracking list
Your tracking list is empty





NASA's NSSDC Master Catalog

Two Line Element Set (TLE):
1 26770U 01020A   17112.56354583 0.00000000  00000-0  00000-0 0    09
2 26770   6.2341  47.1060 0013957  34.5289 325.5960  0.98841210    07
Source of the keplerian elements: McCants